User: anonymous   Login
Location: Dover
(39.1580°N, 75.5250°W)
Time: 19:50:58
(UTC-05:00)
Language:

SeaSat 1 - Orbit

View from above orbital plane
View from above orbital plane
View from above satellite
View from above satellite

Ground track
Ground track

The orbit data is extracted from the following two-line orbital elements,

1 10967U 78064A   14355.54725429  .00000764  00000-0  26725-3 0  4654
2 10967 107.9930 201.9996 0001991 307.4504 116.0891 14.43217144915500
Epoch (UTC): 21 December 2014 13:08:02
Eccentricity: 0.0001991
inclination: 107.9930°
perigee height: 746 km
apogee height: 749 km
right ascension of ascending node: 201.9996°
argument of perigee: 307.4504°
revolutions per day: 14.43217144
mean anomaly at epoch: 116.0891°
orbit number at epoch: 91550

The dashed part of the orbit path shows where the satellite is in the earth's shadow,  

DLR